Location: Carno�t
(48.3676°N, 3.5204°W)
Time: 06:52:57
(UTC+00:00)

Daily predictions for brighter satellites

Satellite Brightness Start Highest point End
(mag) Time Altitude Azimuth Time Altitude Azimuth Time Altitude Azimuth
Cosmos 968 Rocket 3.8 17:18:40 10° SSW 17:23:46 72° WNW 17:28:54 10° NNE
Envisat 3.6 17:19:13 10° S 17:24:15 63° WSW 17:29:19 10° NNW
Cosmos 1354 Rocket 4.2 17:20:34 10° S 17:25:47 59° ESE 17:31:03 10° NNE
NOAA 11 4.3 17:21:03 10° SSE 17:26:27 60° ENE 17:31:53 10° N
NOAA 6 4.4 17:21:49 10° S 17:26:56 75° WSW 17:32:07 10° NNW
Cosmos 2058 Rocket 4.2 17:23:36 10° NNE 17:27:11 23° ENE 17:30:46 10° ESE
USA-17 4.4 17:23:31 10° SW 17:27:15 81° SE 17:30:21 10° NE
Cosmos 1300 2.9 17:25:59 10° N 17:29:43 48° ENE 17:33:26 10° SSE
NOSS 7 (H) 4.2 17:28:48 10° SW 17:32:09 84° NW 17:35:05 10° NE
Cosmos 1486 Rocket 4.5 17:29:22 10° SW 17:34:33 64° WNW 17:39:46 10° NNE
GENESIS II 4.4 17:31:02 10° SSW 17:34:59 62° SE 17:38:58 10° NE
Landsat 5 3.3 17:31:05 10° NNE 17:35:05 83° ESE 17:38:56 10° SSW
Cosmos 1953 4.4 17:31:55 10° NNW 17:35:28 32° W 17:39:00 10° SSW
ADEOS Rocket 4.1 17:33:13 10° N 17:39:01 44° WNW 17:44:22 10° SW
CREW DRAGON DEMO-1 DEB 3.3 17:36:25 10° WNW 17:39:13 42° N 17:41:52 11° ENE
Lacrosse 5 2.3 17:34:23 10° NW 17:39:17 46° NNE 17:44:09 10° E
Cosmos 1943 3.4 17:36:18 10° NNW 17:42:00 81° WSW 17:47:38 10° SSE
ISS -1.4 17:41:31 10° SSE 17:42:55 12° SE 17:44:20 10° ESE
Cosmos 1726 Rocket 3.8 17:38:45 10° N 17:42:58 45° ENE 17:47:10 10° SSE
ERS-2 3.8 17:42:09 10° NE 17:44:22 15° E 17:46:35 10° SE
Cosmos 1939 Rocket 3.1 17:41:33 10° SE 17:45:31 48° ENE 17:49:28 10° N
Meteor 1-24 Rocket 3.6 17:42:34 10° S 17:47:49 60° E 17:53:02 10° NNE
COSMOS 2455 3.5 17:42:58 10° S 17:48:24 37° ESE 17:53:52 10° NE
Cosmos 1833 Rocket 4.4 17:49:47 10° N 17:52:35 14° NNE 17:54:41 11° NE
Cosmos 2082 Rocket 4.2 17:53:03 10° NNE 17:54:00 10° NNE 17:54:59 10° NE
Cosmos 1315 Rocket 2.9 17:51:34 10° NNW 17:55:33 81° W 17:59:33 10° S
IRS-1C Rocket 4.4 17:51:33 10° SE 17:56:30 44° ENE 18:01:28 10° N
CZ-4 R/B 2.3 17:54:25 10° SE 17:57:56 28° ENE 18:01:23 10° N
Feng Yun 1-1 Rocket 4.2 17:53:49 10° SSE 17:59:09 61° ENE 18:04:38 10° N
NOSS 3-4 (A) 4.5 17:55:01 10° W 18:00:35 38° NNW 18:06:37 10° NE
NOSS 3-4 (C) 4.5 17:55:10 10° W 18:00:44 38° NNW 18:06:47 10° NE
COSMO-SKYMED 1 3.0 17:57:55 10° NNE 18:02:04 42° E 18:06:11 10° S
Cosmos 2279 Rocket 4.0 17:56:32 10° N 18:02:51 81° E 18:09:06 10° SSE
Cosmos 2227 4.5 17:59:44 10° SW 18:05:22 72° WNW 18:11:05 10° NNE
Cosmos 2227 Rocket 4.4 18:05:06 10° W 18:08:57 18° NW 18:12:50 10° N
CZ-4B R/B 1.4 18:08:54 10° NNE 18:12:17 58° ESE 18:15:33 10° S
H-2A R/B 4.4 18:09:39 10° SSW 18:13:18 33° W 18:17:05 10° NNW
Okean-O 3.1 18:09:56 10° SE 18:14:02 38° ENE 18:18:10 10° N
CZ-2C R/B 3.1 18:10:16 10° SSE 18:15:30 65° ENE 18:21:04 10° N
Cosmos 1844 Rocket 3.3 18:10:30 10° S 18:15:35 35° ESE 18:19:24 16° NE
CSL-04 DEB 4.4 18:11:47 10° NNE 18:16:03 82° ESE 18:20:09 10° SSW
Okean O Rocket 2.8 18:12:39 10° S 18:16:56 47° W 18:21:15 10° NNW
Cosmos 1626 3.9 18:14:12 10° SW 18:17:33 32° WNW 18:20:56 10° N
H-2A R/B 2.3 18:13:23 10° SE 18:18:02 41° ENE 18:22:49 10° N
ATLAS 2AS CENTAUR R/B 3.8 18:10:33 10° WSW 18:18:09 46° NW 18:25:30 10° NE
Cosmos 1689 Rocket 3.8 18:20:00 18° SE 18:20:00 18° SE 18:21:13 10° SSE
Aureole 2 Rocket 2.9 18:16:18 10° S 18:19:00 31° ESE 18:19:28 29° E
Cosmos 158 Rocket 4.3 18:15:57 10° NNW 18:21:03 45° ENE 18:26:13 10° SE
Cosmos 1680 Rocket 4.1 18:18:10 10° N 18:22:57 34° ENE 18:26:36 15° ESE
SKYMED 3 4.5 18:21:46 10° NNE 18:26:08 74° ESE 18:30:27 10° S
CZ-2D R/B 3.3 18:27:38 10° S 18:31:30 81° WSW 18:35:22 10° NNW
Cosmos 1818 3.9 18:27:03 10° S 18:32:10 44° ESE 18:34:52 25° ENE
TELKOM 3 4.0 18:30:02 10° SW 18:32:11 32° SSE 18:32:11 32° SSE
SAR-Lupe-4 4.0 18:31:27 32° ENE 18:32:23 39° E 18:35:45 10° S
Meteor 2-10 Rocket 3.6 18:27:14 10° NNW 18:32:49 88° W 18:38:08 10° S
H-2A R/B 3.5 18:30:20 10° N 18:34:30 39° WNW 18:38:34 10° SW
Cosmos 489 Rocket 4.4 18:28:26 10° NNW 18:34:49 68° ENE 18:41:07 10° SSE
YAOGAN 1 2.5 18:31:40 10° SSE 18:35:55 59° ENE 18:40:11 10° N
Cosmos 1892 Rocket 3.6 18:32:44 10° SSW 18:37:05 77° W 18:41:26 10° N
CSL-04 Rocket 3.9 18:34:47 10° SE 18:39:54 46° ENE 18:45:07 10° N
Helios 1A Rocket 3.0 18:36:49 10° SSE 18:40:50 53° ENE 18:44:54 10° N
SAR-Lupe-1 4.1 18:42:35 43° ENE 18:43:18 52° ESE 18:46:47 10° S
USA 234 3.7 18:40:19 25° ENE 18:43:49 47° NNE 18:50:02 10° WNW
Aureole 1 4.0 18:41:08 10° NNW 18:44:09 64° ENE 18:44:09 64° ENE
ATLAS 5 CENTAUR R/B 2.7 18:40:48 10° WSW 18:44:39 36° NW 18:47:38 18° NNE
Cosmos 1092 Rocket 4.1 18:39:58 10° SSE 18:45:50 47° E 18:51:42 10° NNE
Iridium 4 Rocket 3.9 18:40:36 10° N 18:46:03 43° E 18:51:07 10° SSE
MOS 1 Rocket 3.0 18:42:00 10° NNE 18:46:21 89° ESE 18:50:38 10° SSW
Meteor 2-1 Rocket 4.1 18:41:35 10° N 18:47:13 79° ENE 18:52:43 10° SSE
Cosmos 1812 Rocket 3.9 18:44:49 10° N 18:48:54 41° ENE 18:48:54 41° ENE
SKYMED 2 3.9 18:45:50 10° N 18:50:09 65° WNW 18:54:27 10° SSW
Cosmos 2344 4.3 18:43:09 10° NW 18:51:48 56° NE 18:59:36 23° ESE
SJ 16-02 1.2 18:50:05 10° S 18:54:27 68° ESE 18:55:59 38° NE
SJ-11-01 4.1 18:50:22 10° SSE 18:55:03 76° ENE 18:59:46 10° N
Aureole 3 2.8 18:53:12 10° N 18:56:51 83° W 18:59:57 10° S
Cosmos 2112 Rocket 4.0 18:55:24 10° NNW 19:00:36 56° ENE 19:02:18 38° ESE
Cosmos 1455 2.3 18:57:20 10° NNW 19:01:08 73° W 19:04:57 10° S
CZ-4C R/B 3.9 18:58:07 10° WNW 19:02:47 26° NNW 19:06:30 16° NNE
Nadezhda 4 Rocket 4.0 18:56:53 10° S 19:03:10 84° W 19:09:24 10° N
Cosmos 2263 Rocket 3.8 19:00:25 10° WSW 19:05:22 30° NW 19:10:19 10° NNE
Cosmos 2058 Rocket 4.4 19:01:07 10° NNW 19:05:22 42° W 19:09:37 10° SSW
X-37B 2.4 19:03:37 10° SW 19:05:31 24° S 19:05:31 24° S
Cosmos 1703 4.0 19:04:32 10° S 19:07:02 38° SSE 19:07:02 38° SSE
COSMOS 2406 3.7 19:09:43 10° NNW 19:14:49 41° NE 19:14:49 41° NE
ERS-2 3.1 19:16:36 27° NNW 19:18:08 45° WNW 19:21:37 10° SW
ARGOS 3.1 19:13:10 10° SSE 19:18:33 87° W 19:23:58 10° NNW
ISS -2.3 19:15:50 10° SW 19:17:57 34° SW 19:17:57 34° SW
Cosmos 44 4.1 19:15:32 10° S 19:18:46 36° SSE 19:18:46 36° SSE
Lacrosse 5 2.4 19:17:27 10° WNW 19:22:24 56° SW 19:24:15 35° SSE
CZ-2C R/B 2.7 19:27:19 60° ESE 19:27:19 60° ESE 19:32:29 10° S
CSL-04 Debris 4.3 19:23:29 10° S 19:28:52 72° WSW 19:34:16 10° NNW
Cosmos 1626 Rocket 3.9 19:25:28 10° SSW 19:29:48 63° WNW 19:31:13 40° NNW
NOSS 3-1 (C) 3.9 19:23:53 10° NW 19:31:15 79° NE 19:34:39 40° SE
CZ-4 R/B 3.3 19:29:15 10° SSW 19:32:53 30° W 19:36:29 10° NNW
COSMOS 2455 3.6 19:28:22 10° WSW 19:34:12 50° NW 19:37:13 27° NNE
Cosmos 1553 Rocket 3.9 19:29:57 10° N 19:36:14 63° ENE 19:36:14 63° ENE
Cosmos 990 Rocket 4.0 19:31:48 10° SSW 19:36:25 69° S 19:36:25 69° S
Cosmos 1844 3.8 19:31:44 10° SW 19:37:23 73° WNW 19:39:07 46° NNE
Cosmos 1833 Rocket 3.4 19:32:27 10° NNW 19:36:25 40° N 19:36:25 40° N
Cosmos 2082 Rocket 3.6 19:34:53 10° NNW 19:37:47 25° N 19:37:47 25° N
Cosmos 2026 Rocket 3.8 19:34:05 10° S 19:40:11 89° E 19:46:26 10° N
USA 281 4.2 19:43:32 30° NNE 19:43:32 30° NNE 19:47:39 10° NNW
SL-08 RB Rocket 4.4 19:43:21 48° NW 19:43:21 48° NW 19:46:41 10° NNW
Meteor 2-19 Rocket 4.4 19:39:02 10° S 19:44:22 65° SSE 19:44:22 65° SSE
USA 229 DEB 3.8 19:40:59 10° NW 19:48:16 76° NE 19:49:18 66° ESE
USA 229 3.7 19:41:05 10° NW 19:48:21 75° NE 19:49:21 66° E
USA 267 3.5 19:51:34 51° SSE 19:51:34 51° SSE 19:57:15 10° SSW
H-2A R/B 3.8 19:53:16 10° SSW 19:57:35 29° W 20:02:02 10° NNW
Cosmos 1844 Rocket 3.7 19:54:00 10° SW 19:59:24 44° NW 20:01:07 34° NNW
NOSS 3-1 (A) 3.9 19:56:27 10° NW 20:03:51 80° NE 20:04:26 75° E
Cosmos 1898 Rocket 4.4 20:00:34 10° SSW 20:04:03 42° SW 20:04:03 42° SW
ATLAS 2AS CENTAUR R/B 4.3 20:04:42 10° WNW 20:11:07 26° N 20:12:57 24° NNE
USA 234 3.5 20:27:40 63° NW 20:27:40 63° NW 20:33:05 10° NW
ATLAS 5 CENTAUR R/B 4.3 20:27:54 10° NW 20:29:10 14° NNW 20:29:10 14° NNW
SJ 16-02 4.0 20:30:35 10° W 20:33:01 17° WNW 20:33:01 17° WNW
CZ-4C R/B 4.5 20:48:44 10° NW 20:51:41 20° NNW 20:51:41 20° NNW
